Regional Weather Roundup
Issued by NWS

Home | Current Version | Previous Version | Text Only | Print | Product List | Glossary On
Versions: 1 2 3 4 5 6 7 8 9 10 11 12 13 14 15 16 17 18 19 20 21 22 23 24 25 26 27 28 29 30 31 32 33 34 35 36 37 38 39 40 41 42 43 44 45 46 47 48 49 50
000
ASUS43 KLOT 021158
RWRIL

ILLINOIS REGIONAL WEATHER ROUNDUP
NATIONAL WEATHER SERVICE CHICAGO/ROMEOVILLE IL
600 AM CST MON MAR 02 2015

NOTE: "FAIR" INDICATES FEW OR NO CLOUDS BELOW 12,000 FEET WITH NO
SIGNIFICANT WEATHER AND/OR OBSTRUCTIONS TO VISIBILITY.

* THESE STATIONS ARE NOT UNDER NWS QUALITY CONTROL. THEY ALSO MAY NOT
  REPORT WEATHER SUCH AS PRECIPITATION OR FOG.

ILZ001-002-007-009-015-016-024-021300-
NORTHWEST ILLINOIS

CITY           SKY/WX    TMP DP  RH WIND       PRES   REMARKS
MOLINE         PTCLDY     5   1  83 CALM      30.52R
6HR MIN TEMP:   3; 6HR MAX TEMP:  14;

$$

ILZ003-004-008-010-011-017-018-021300-
NORTH CENTRAL ILLINOIS

CITY           SKY/WX    TMP DP  RH WIND       PRES   REMARKS
ROCKFORD       NOT AVBL
$$

ILZ005-006-012>014-019>023-021300-
NORTHEAST ILLINOIS

CITY           SKY/WX    TMP DP  RH WIND       PRES   REMARKS
CHICAGO-OHARE  PTCLDY    14   8  77 W10       30.45R WCI   1
6HR MIN TEMP:  14; 6HR MAX TEMP:  19;

CHICAGO-MIDWAY PTCLDY    16   9  74 W7        30.47R WCI   6
6HR MIN TEMP:  16; 6HR MAX TEMP:  20;

AURORA         MOCLDY     4  -1  80 W7        30.48R WCI  -8
6HR MIN TEMP:   2; 6HR MAX TEMP:  12;

WAUKEGAN       NOT AVBL
DUPAGE AIRPORT PTCLDY    11   6  81 W5        30.46R WCI   3
6HR MIN TEMP:   9; 6HR MAX TEMP:  17;

WHEELING       PTCLDY    13   6  74 NW3       30.46S
6HR MIN TEMP:  13; 6HR MAX TEMP:  19;

NORTHERLY ISL    N/A     19  10  68 W12         N/A  WCI   7
$$

LMZ740>746-021300-
SOUTHERN LAKE MICHIGAN

STATION/POSITION SKY/WX   TEMP    WIND        PRES    VSBY  WAVE
                          AIR SEA DIR/SP/G                  HT/PER
                          (F)     (DEG/KT/KT) (MB)    (MI)  (FT/S)
WAUKEGAN HARBOR            17     280/ 10/ 19   N/A
HARRISON CRIB              20     290/ 15/ 18   N/A
BURNHAM HARBOR             19     290/ 14/ 15   N/A
CALUMET HARBOR             17     260/  5/  7 1029.9R
MICHIGAN CITY              18     240/ 11/ 13   N/A
$$

ILZ025>027-034>036-040-047-049-050-058-095>099-021300-
WEST-CENTRAL ILLINOIS

CITY           SKY/WX    TMP DP  RH WIND       PRES   REMARKS
$$

ILZ028>032-037-038-041>044-048-051>054-059>061-021300-
CENTRAL ILLINOIS

CITY           SKY/WX    TMP DP  RH WIND       PRES   REMARKS
PEORIA         NOT AVBL
SPRINGFIELD    CLOUDY    14  11  87 W5        30.53R WCI   6
6HR MIN TEMP:  12; 6HR MAX TEMP:  18;

TAYLORVILLE    NOT AVBL
$$

ILZ033-039-045-046-055>057-062-063-021300-
EAST-CENTRAL ILLINOIS

CITY           SKY/WX    TMP DP  RH WIND       PRES   REMARKS
CHAMPAIGN      MOCLDY    10   7  87 W7        30.49R FOG     WCI  -1
MATTOON        MOCLDY    17  11  77 NW8       30.49S WCI   7
$$

ILZ079-100>102-021300-
SOUTHWEST ILLINOIS

CITY           SKY/WX    TMP DP  RH WIND       PRES   REMARKS
BELLEVILLE     MOCLDY     9   9 100 CALM      30.54R
$$

ILZ064>066-069>071-074>076-080>082-084>086-088>090-092>094-021300-
SOUTH-CENTRAL ILLINOIS

CITY           SKY/WX    TMP DP  RH WIND       PRES   REMARKS
CARBONDALE     PTCLDY    22  18  85 N5        30.54R WCI  16
6HR MIN TEMP:  22; 6HR MAX TEMP:  28;

$$

ILZ067-068-072-073-078-083-087-091-021300-
SOUTHEAST ILLINOIS

CITY           SKY/WX    TMP DP  RH WIND       PRES   REMARKS
$$

ABBREVIATIONS USED IN REMARKS
   TC - TEMPERATURE IN CELSIUS
  WCI - WIND CHILL INDEX
   HX - HEAT INDEX
  VSB - VISIBILITY
$$




USA.gov is the U.S. government's official web portal to all federal, state and local government web resources and services.